Location: Albany
(35.0000°S, 118.0000°E)
Time: 18:31:12
(UTC-04:00)

JAS-1B - Visible Passes

Search period start: 06 May 2016 00:00
Search period end: 16 May 2016 00:00
Orbit: 912 x 1743 km, 99.0° (Epoch: 06 May)

Date Brightness Start Highest point End Pass type
(mag) Time Alt. Az. Time Alt. Az. Time Alt. Az.
06 May 6.8 06:33:59 10° NNE 06:40:00 74° ESE 06:45:44 10° S visible
06 May 9.9 08:30:10 10° WNW 08:31:12 10° W 08:32:14 10° W visible
06 May 10.0 18:19:54 10° SE 18:26:06 28° E 18:33:06 10° NNE visible
07 May 7.1 06:52:58 10° N 06:58:58 75° WNW 07:04:44 10° SSW visible
08 May 7.7 07:12:14 10° N 07:17:59 50° W 07:23:34 10° SSW visible
09 May 7.8 05:41:45 10° ENE 05:46:30 26° ESE 05:51:11 10° SSE visible
09 May 8.5 07:31:47 10° NNW 07:37:04 33° W 07:42:12 10° SW visible
09 May 10.8 17:30:53 10° E 17:32:15 10° E 17:33:38 10° E visible
10 May 7.3 05:59:59 10° NE 06:05:20 39° ESE 06:10:38 10° S visible
10 May 9.1 07:51:46 10° NW 07:56:11 22° W 08:00:33 10° SW visible
10 May 10.4 17:46:46 10° ESE 17:51:29 17° E 17:56:34 10° NE visible
11 May 6.9 06:18:32 10° NNE 06:24:14 58° ESE 06:29:53 10° S visible
11 May 9.7 08:12:27 10° WNW 08:15:22 14° W 08:18:16 10° WSW visible
11 May 10.2 18:04:33 10° SE 18:10:40 24° E 18:17:27 10° NNE visible
12 May 6.8 06:37:21 10° NNE 06:43:10 85° ESE 06:48:59 10° SSW visible
12 May 9.8 18:22:50 10° SE 18:29:48 34° E 18:37:42 10° NNE visible
13 May 7.3 06:56:26 10° N 07:02:10 65° WNW 07:07:57 10° SSW visible
14 May 8.0 07:15:47 10° N 07:21:13 42° W 07:26:43 10° SSW visible
15 May 7.6 05:44:44 10° NE 05:49:39 30° ESE 05:54:42 10° S visible
15 May 8.8 07:35:28 10° NNW 07:40:20 28° W 07:45:16 10° SW visible
15 May 10.6 17:32:00 10° ESE 17:36:01 14° E 17:40:15 10° ENE visible
